TimeCST,TemperatureF,Dew PointF,Humidity,Sea Level PressureIn,VisibilityMPH,Wind Direction,Wind SpeedMPH,Gust SpeedMPH,PrecipitationIn,Events,Conditions,WindDirDegrees,DateUTC
12:02 AM,60.8,60.8,100,29.95,10.0,South,9.2,-,N/A,,Mostly Cloudy,190,2012-12-08 06:02:00
12:10 AM,60.8,60.8,100,29.95,10.0,South,9.2,-,N/A,,Mostly Cloudy,180,2012-12-08 06:10:00
12:12 AM,60.8,60.8,100,29.95,10.0,South,9.2,-,N/A,,Scattered Clouds,180,2012-12-08 06:12:00
12:13 AM,59.0,59.0,100,29.95,10.0,South,8.1,-,N/A,,Scattered Clouds,180,2012-12-08 06:13:00
12:16 AM,59.0,59.0,100,29.95,10.0,South,10.4,-,N/A,,Mostly Cloudy,190,2012-12-08 06:16:00
12:21 AM,59.0,59.0,100,29.95,10.0,South,9.2,-,N/A,,Mostly Cloudy,180,2012-12-08 06:21:00
12:24 AM,59.0,59.0,100,29.94,10.0,South,8.1,-,N/A,,Scattered Clouds,180,2012-12-08 06:24:00
12:53 AM,59.0,59.0,100,29.94,10.0,South,8.1,-,N/A,,Mostly Cloudy,180,2012-12-08 06:53:00
12:55 AM,59.4,59.4,100,29.94,10.0,South,8.1,-,N/A,,Mostly Cloudy,180,2012-12-08 06:55:00
1:14 AM,59.0,59.0,100,29.94,10.0,South,9.2,-,N/A,,Overcast,190,2012-12-08 07:14:00
1:39 AM,60.8,60.8,100,29.95,8.0,SSW,6.9,-,N/A,,Overcast,200,2012-12-08 07:39:00
1:55 AM,59.9,59.9,100,29.95,6.0,SSW,5.8,-,N/A,,Overcast,200,2012-12-08 07:55:00
2:04 AM,60.8,60.8,100,29.96,5.0,SSW,4.6,-,N/A,,Overcast,210,2012-12-08 08:04:00
2:09 AM,59.0,59.0,100,29.96,4.0,SW,4.6,-,N/A,,Overcast,230,2012-12-08 08:09:00
2:36 AM,59.0,59.0,100,29.96,3.0,SSW,6.9,-,N/A,,Overcast,210,2012-12-08 08:36:00
2:40 AM,59.0,59.0,100,29.95,2.5,SSW,6.9,-,N/A,,Overcast,210,2012-12-08 08:40:00
2:44 AM,59.0,59.0,100,29.95,2.0,SSW,6.9,-,N/A,,Overcast,200,2012-12-08 08:44:00
2:45 AM,59.0,59.0,100,29.95,1.8,SSW,5.8,-,N/A,,Overcast,200,2012-12-08 08:45:00
2:46 AM,59.0,59.0,100,29.95,1.8,SSW,5.8,-,N/A,,Overcast,200,2012-12-08 08:46:00
2:47 AM,59.0,59.0,100,29.95,1.5,SSW,5.8,-,N/A,,Overcast,200,2012-12-08 08:47:00
2:48 AM,59.0,59.0,100,29.95,1.5,SSW,5.8,-,N/A,,Overcast,210,2012-12-08 08:48:00
2:49 AM,59.0,59.0,100,29.95,1.2,SSW,4.6,-,N/A,,Overcast,200,2012-12-08 08:49:00
2:50 AM,59.0,59.0,100,29.95,1.2,SSW,4.6,-,N/A,,Overcast,200,2012-12-08 08:50:00
2:52 AM,59.0,59.0,100,29.95,1.0,SW,4.6,-,N/A,,Overcast,220,2012-12-08 08:52:00
2:55 AM,59.5,59.5,100,29.96,1.0,SSW,5.8,-,N/A,,Overcast,210,2012-12-08 08:55:00
3:04 AM,59.0,59.0,100,29.95,0.8,SSW,4.6,-,N/A,,Overcast,200,2012-12-08 09:04:00
3:17 AM,59.0,59.0,100,29.96,0.8,SSW,3.5,-,N/A,,Mist,210,2012-12-08 09:17:00
3:31 AM,59.0,59.0,100,29.96,0.8,SSW,4.6,-,N/A,,Mist,200,2012-12-08 09:31:00
3:46 AM,59.0,59.0,100,29.96,1.0,South,4.6,-,N/A,,Mist,180,2012-12-08 09:46:00
3:55 AM,59.5,59.5,100,29.96,1.0,South,3.5,-,N/A,,Mist,180,2012-12-08 09:55:00
3:56 AM,59.0,59.0,100,29.96,1.2,South,3.5,-,N/A,,Overcast,190,2012-12-08 09:56:00
4:01 AM,59.0,59.0,100,29.96,1.2,South,4.6,-,N/A,,Overcast,180,2012-12-08 10:01:00
4:02 AM,59.0,59.0,100,29.96,1.5,South,4.6,-,N/A,,Overcast,180,2012-12-08 10:02:00
4:14 AM,59.0,59.0,100,29.96,1.5,South,4.6,-,N/A,,Overcast,180,2012-12-08 10:14:00
4:15 AM,59.0,59.0,100,29.96,1.2,South,4.6,-,N/A,,Overcast,180,2012-12-08 10:15:00
4:19 AM,59.0,59.0,100,29.96,1.0,South,4.6,-,N/A,,Overcast,180,2012-12-08 10:19:00
4:24 AM,59.0,59.0,100,29.96,0.8,South,4.6,-,N/A,,Overcast,170,2012-12-08 10:24:00
4:32 AM,59.0,59.0,100,29.96,0.8,South,4.6,-,N/A,,Overcast,170,2012-12-08 10:32:00
4:36 AM,59.0,59.0,100,29.96,0.8,South,5.8,-,N/A,,Mist,170,2012-12-08 10:36:00
4:46 AM,60.8,60.8,100,29.96,0.8,South,3.5,-,N/A,,Mist,180,2012-12-08 10:46:00
4:53 AM,60.8,60.8,100,29.96,0.5,Calm,Calm,-,N/A,Fog,Fog,0,2012-12-08 10:53:00
4:55 AM,59.9,59.9,100,29.97,0.5,South,3.5,-,N/A,Fog,Fog,180,2012-12-08 10:55:00
5:01 AM,60.8,60.8,100,29.97,0.5,South,4.6,-,N/A,Fog,Fog,170,2012-12-08 11:01:00
5:10 AM,60.8,60.8,100,29.97,0.5,South,3.5,-,N/A,Fog,Fog,180,2012-12-08 11:10:00
5:13 AM,60.8,60.8,100,29.97,0.5,South,3.5,-,N/A,Fog,Fog,170,2012-12-08 11:13:00
5:14 AM,60.8,60.8,100,29.97,0.8,South,3.5,-,N/A,,Mist,170,2012-12-08 11:14:00
5:22 AM,60.8,60.8,100,29.97,1.0,SSE,3.5,-,N/A,,Mist,160,2012-12-08 11:22:00
5:47 AM,60.8,60.8,100,29.97,1.2,SSE,6.9,-,N/A,,Overcast,160,2012-12-08 11:47:00
5:52 AM,59.0,59.0,100,29.97,1.0,SSE,6.9,-,N/A,,Mist,150,2012-12-08 11:52:00
5:55 AM,59.7,59.7,100,29.97,1.0,SSE,6.9,-,N/A,,Mist,160,2012-12-08 11:55:00
5:58 AM,59.0,59.0,100,29.97,0.8,SSE,5.8,-,N/A,,Mist,160,2012-12-08 11:58:00
6:05 AM,59.0,59.0,100,29.97,0.8,SSE,4.6,-,N/A,,Mist,160,2012-12-08 12:05:00
6:14 AM,59.0,59.0,100,29.97,0.5,SSE,3.5,-,N/A,Fog,Fog,160,2012-12-08 12:14:00
6:37 AM,60.8,60.8,100,29.98,0.5,South,5.8,-,N/A,Fog,Fog,170,2012-12-08 12:37:00
6:41 AM,60.8,60.8,100,29.98,0.5,South,5.8,-,N/A,Fog,Fog,170,2012-12-08 12:41:00
6:48 AM,60.8,60.8,100,29.98,0.2,South,6.9,-,N/A,Fog,Fog,170,2012-12-08 12:48:00
6:55 AM,60.3,60.3,100,29.98,0.2,South,5.8,-,N/A,Fog,Fog,170,2012-12-08 12:55:00
7:13 AM,60.8,60.8,100,29.98,0.2,South,6.9,-,N/A,Fog,Fog,170,2012-12-08 13:13:00
7:25 AM,60.8,60.8,100,29.98,0.2,South,6.9,-,N/A,Fog,Fog,180,2012-12-08 13:25:00
7:26 AM,60.8,60.8,100,29.98,0.5,South,6.9,-,N/A,Fog,Fog,170,2012-12-08 13:26:00
7:30 AM,60.8,60.8,100,29.98,0.5,South,6.9,-,N/A,Fog,Fog,180,2012-12-08 13:30:00
7:31 AM,60.8,60.8,100,29.98,0.5,South,6.9,-,N/A,Fog,Fog,180,2012-12-08 13:31:00
7:32 AM,60.8,60.8,100,29.98,0.5,South,8.1,-,N/A,Fog,Fog,180,2012-12-08 13:32:00
7:33 AM,60.8,60.8,100,29.98,0.8,South,9.2,-,N/A,,Overcast,180,2012-12-08 13:33:00
7:35 AM,60.8,60.8,100,29.98,1.0,South,6.9,-,N/A,,Overcast,180,2012-12-08 13:35:00
7:37 AM,60.8,60.8,100,29.98,1.2,South,6.9,-,N/A,,Overcast,190,2012-12-08 13:37:00
7:38 AM,60.8,60.8,100,29.98,1.5,South,5.8,-,N/A,,Overcast,180,2012-12-08 13:38:00
7:39 AM,60.8,60.8,100,29.98,1.8,South,8.1,-,N/A,,Overcast,180,2012-12-08 13:39:00
7:40 AM,60.8,60.8,100,29.98,2.0,South,8.1,-,N/A,,Overcast,190,2012-12-08 13:40:00
7:42 AM,60.8,60.8,100,29.98,3.0,South,6.9,-,N/A,,Overcast,190,2012-12-08 13:42:00
7:43 AM,60.8,60.8,100,29.98,4.0,South,5.8,-,N/A,,Overcast,180,2012-12-08 13:43:00
7:46 AM,60.8,60.8,100,29.98,5.0,South,6.9,-,N/A,,Overcast,190,2012-12-08 13:46:00
7:55 AM,61.2,61.2,100,29.97,5.0,South,8.1,-,N/A,,Overcast,180,2012-12-08 13:55:00
8:02 AM,60.8,60.8,100,29.98,6.0,SSW,5.8,-,N/A,,Overcast,200,2012-12-08 14:02:00
8:26 AM,60.8,60.8,100,29.98,4.0,SSW,5.8,-,N/A,,Overcast,200,2012-12-08 14:26:00
8:28 AM,60.8,60.8,100,29.98,4.0,SSW,6.9,-,N/A,,Overcast,210,2012-12-08 14:28:00
8:34 AM,62.6,62.6,100,29.99,3.0,SSW,5.8,-,N/A,,Overcast,210,2012-12-08 14:34:00
8:48 AM,62.6,62.6,100,29.98,2.5,SSW,5.8,-,N/A,,Overcast,200,2012-12-08 14:48:00
8:55 AM,62.1,62.1,100,29.99,3.0,SSW,8.1,-,N/A,,Overcast,210,2012-12-08 14:55:00
9:00 AM,62.6,62.6,100,29.99,2.5,SSW,9.2,-,N/A,,Overcast,200,2012-12-08 15:00:00
9:07 AM,62.6,62.6,100,29.99,3.0,South,6.9,-,N/A,,Overcast,180,2012-12-08 15:07:00
9:10 AM,62.6,62.6,100,29.99,4.0,SSW,8.1,-,N/A,,Overcast,200,2012-12-08 15:10:00
9:13 AM,62.6,62.6,100,29.99,5.0,SSW,4.6,-,N/A,,Overcast,210,2012-12-08 15:13:00
9:33 AM,62.6,62.6,100,30.00,6.0,SSW,4.6,-,N/A,,Overcast,200,2012-12-08 15:33:00
9:55 AM,62.6,62.6,100,30.00,10.0,SSW,4.6,-,N/A,,Overcast,200,2012-12-08 15:55:00
10:00 AM,62.6,62.6,100,30.00,10.0,SSW,4.6,-,N/A,,Overcast,200,2012-12-08 16:00:00
10:06 AM,62.6,62.6,100,30.00,10.0,SSW,4.6,-,N/A,,Overcast,200,2012-12-08 16:06:00
10:08 AM,62.6,62.6,100,30.00,10.0,South,5.8,-,N/A,,Overcast,190,2012-12-08 16:08:00
10:26 AM,64.4,64.4,100,29.99,10.0,South,5.8,-,N/A,,Overcast,180,2012-12-08 16:26:00
10:34 AM,64.4,64.4,100,29.99,10.0,South,5.8,-,N/A,,Overcast,190,2012-12-08 16:34:00
10:55 AM,64.9,64.8,99,29.98,10.0,SSW,4.6,-,0.01,,Overcast,210,2012-12-08 16:55:00
11:10 AM,66.2,62.6,88,29.98,10.0,South,6.9,-,N/A,,Overcast,190,2012-12-08 17:10:00
11:39 AM,66.2,60.8,83,29.96,10.0,South,6.9,-,N/A,,Overcast,190,2012-12-08 17:39:00
11:42 AM,66.2,60.8,83,29.96,10.0,Variable,5.8,-,N/A,,Overcast,0,2012-12-08 17:42:00
11:55 AM,66.7,59.4,77,29.96,10.0,SSW,8.1,-,N/A,,Mostly Cloudy,210,2012-12-08 17:55:00
12:12 PM,68.0,59.0,73,29.95,10.0,South,6.9,-,N/A,,Mostly Cloudy,180,2012-12-08 18:12:00
12:13 PM,68.0,59.0,73,29.95,10.0,South,5.8,-,N/A,,Mostly Cloudy,180,2012-12-08 18:13:00
12:21 PM,68.0,59.0,73,29.95,10.0,SSW,5.8,-,N/A,,Mostly Cloudy,210,2012-12-08 18:21:00
12:24 PM,68.0,59.0,73,29.95,10.0,SW,6.9,-,N/A,,Mostly Cloudy,230,2012-12-08 18:24:00
12:26 PM,68.0,59.0,73,29.95,10.0,South,3.5,-,N/A,,Mostly Cloudy,190,2012-12-08 18:26:00
12:28 PM,68.0,59.0,73,29.95,10.0,Calm,Calm,-,N/A,,Mostly Cloudy,0,2012-12-08 18:28:00
12:54 PM,68.0,59.0,73,29.94,10.0,SW,6.9,-,N/A,,Mostly Cloudy,220,2012-12-08 18:54:00
12:55 PM,68.5,58.5,70,29.94,10.0,Variable,4.6,-,N/A,,Mostly Cloudy,0,2012-12-08 18:55:00
1:02 PM,68.0,59.0,73,29.94,10.0,SW,5.8,-,N/A,,Scattered Clouds,230,2012-12-08 19:02:00
1:05 PM,68.0,57.2,68,29.94,10.0,South,8.1,-,N/A,,Mostly Cloudy,180,2012-12-08 19:05:00
1:13 PM,69.8,59.0,68,29.93,10.0,South,6.9,-,N/A,,Scattered Clouds,190,2012-12-08 19:13:00
1:55 PM,71.1,58.3,64,29.91,10.0,South,11.5,-,N/A,,Clear,180,2012-12-08 19:55:00
2:55 PM,72.1,58.5,62,29.91,10.0,SSE,9.2,-,N/A,,Scattered Clouds,150,2012-12-08 20:55:00
2:59 PM,71.6,59.0,64,29.91,10.0,South,9.2,-,N/A,,Mostly Cloudy,170,2012-12-08 20:59:00
3:00 PM,71.6,59.0,64,29.91,10.0,South,9.2,-,N/A,,Mostly Cloudy,170,2012-12-08 21:00:00
3:04 PM,71.6,59.0,64,29.91,10.0,South,9.2,-,N/A,,Scattered Clouds,170,2012-12-08 21:04:00
3:12 PM,71.6,57.2,60,29.91,10.0,SSE,8.1,-,N/A,,Mostly Cloudy,160,2012-12-08 21:12:00
3:22 PM,71.6,59.0,64,29.92,10.0,South,9.2,-,N/A,,Scattered Clouds,170,2012-12-08 21:22:00
3:55 PM,70.5,58.8,66,29.92,10.0,South,10.4,-,N/A,,Clear,170,2012-12-08 21:55:00
4:55 PM,64.6,58.3,80,29.93,10.0,SSE,8.1,-,N/A,,Partly Cloudy,150,2012-12-08 22:55:00
5:55 PM,60.1,57.9,93,29.94,10.0,SSE,6.9,-,N/A,,Partly Cloudy,160,2012-12-08 23:55:00
6:55 PM,61.2,59.7,95,29.96,10.0,South,6.9,-,N/A,,Scattered Clouds,170,2012-12-09 00:55:00
7:55 PM,61.0,60.6,99,29.96,10.0,SSE,8.1,-,N/A,,Partly Cloudy,160,2012-12-09 01:55:00
8:55 PM,59.0,59.0,100,29.97,10.0,SSE,5.8,-,N/A,,Clear,160,2012-12-09 02:55:00
9:55 PM,60.8,60.8,100,29.97,10.0,South,8.1,-,N/A,,Partly Cloudy,170,2012-12-09 03:55:00
10:55 PM,58.8,58.8,100,29.97,8.0,SE,6.9,-,N/A,,Clear,140,2012-12-09 04:55:00
11:24 PM,57.2,57.2,100,29.97,4.0,SSE,8.1,-,N/A,,Clear,160,2012-12-09 05:24:00
11:25 PM,57.2,57.2,100,29.97,3.0,SSE,8.1,-,N/A,,Clear,160,2012-12-09 05:25:00
11:26 PM,57.2,57.2,100,29.97,2.5,SSE,6.9,-,N/A,,Clear,160,2012-12-09 05:26:00
11:27 PM,57.2,57.2,100,29.97,1.8,SSE,6.9,-,N/A,,Clear,160,2012-12-09 05:27:00
11:28 PM,57.2,57.2,100,29.97,1.5,SSE,6.9,-,N/A,,Clear,160,2012-12-09 05:28:00
11:29 PM,57.2,57.2,100,29.97,1.2,SSE,6.9,-,N/A,,Clear,160,2012-12-09 05:29:00
11:30 PM,57.2,57.2,100,29.97,1.0,SSE,6.9,-,N/A,,Clear,160,2012-12-09 05:30:00
11:32 PM,57.2,57.2,100,29.96,0.8,SSE,6.9,-,N/A,,Clear,160,2012-12-09 05:32:00
11:33 PM,57.2,57.2,100,29.96,0.8,SSE,6.9,-,N/A,,Clear,160,2012-12-09 05:33:00
11:34 PM,57.2,57.2,100,29.96,0.8,SSE,6.9,-,N/A,,Clear,160,2012-12-09 05:34:00
11:36 PM,57.2,57.2,100,29.96,0.5,SSE,6.9,-,N/A,Fog,Fog,160,2012-12-09 05:36:00
11:50 PM,55.4,55.4,100,29.97,0.5,South,5.8,-,N/A,Fog,Fog,170,2012-12-09 05:50:00
11:55 PM,55.0,55.0,100,29.97,0.5,South,5.8,-,N/A,Fog,Fog,170,2012-12-09 05:55:00